[[{"header":{"parameterUnit":"m.s-1","parameterCategory":1,"la1":30.2992,"la2":30.254,"lo1":-89.0895,"lo2":-89.0443,"dy":0.0025,"dx":0.0025,"nx":19,"ny":19,"refTime":"2026-04-19T09:00:00:Z","depth":0,"parameterNumber":2,"parameterNumberName":"U-component_of_WINDS"},"data":[0,0,0,-3.8878,-3.8881,-3.9007,-3.9007,-3.9214,-3.9216,0,0,0,0,0,0,0,0,0,0,0,-3.8869,-3.8871,-3.8877,-3.8881,-3.9007,-3.9007,-3.9213,-3.9216,0,0,0,0,0,0,0,0,0,0,0,-3.8868,-3.8871,-3.8874,-3.8882,-3.9007,-3.9007,-3.9213,-3.9102,0,0,0,0,0,0,0,0,0,0,-3.8972,-3.8991,-3.887,-3.8874,-3.8883,-3.9007,-3.9007,-3.9096,-3.9109,-3.9177,0,-3.9245,0,-3.9234,-3.9233,-3.9234,0,0,0,-3.886,-3.8981,-3.8989,-3.8874,-3.8884,-3.9007,-3.8944,-3.9102,-3.9117,-3.9194,-3.9247,-3.9254,-3.9238,-3.9234,-3.9236,-3.9698,-3.9701,0,0,-3.8853,-3.8907,-3.8979,-3.9,-3.8984,-3.8941,-3.8949,-3.911,-3.9172,-3.9248,-3.9258,-3.9241,-3.9236,-3.9238,-3.9695,-3.9699,0,0,0,-3.8848,-3.8903,-3.8906,-3.8993,-3.9012,-3.8945,-3.8954,-3.9165,-3.9161,-3.926,-3.9243,-3.9238,-3.9241,-3.9692,-3.9697,-3.9906,0,0,0,-3.8842,-3.8899,-3.8904,-3.8938,-3.901,-3.909,-3.9006,-3.915,-3.9167,-3.9242,-3.9238,-3.9243,-3.9688,-3.9694,-3.9893,-3.9997,0,0,0,-3.8851,-3.89,-3.8928,-3.8941,-3.8997,-3.9086,-3.9091,-3.9152,-3.9158,-3.9234,-3.9244,-3.9686,-3.9693,-3.9881,-3.9977,-4.0135,0,0,0,-3.8876,-3.9112,-3.8932,-3.9189,-3.8996,-3.9214,-3.909,-3.9249,-3.9339,-3.9239,-3.9689,-3.9696,-3.9877,-3.9965,-4.0123,-4.028,-4.035,0,0,-3.9204,-3.9154,-3.9301,-3.9143,-3.9407,-3.919,-3.9484,-3.9516,-3.9474,-3.9626,-3.9636,-3.9897,-3.9976,-4.0133,-4.0718,-4.0774,0,0,0,-3.9423,-3.953,-3.9588,-3.9676,-3.9705,-3.9738,-3.9719,-3.973,-3.9856,-3.9563,-3.9993,-4.0039,-4.0129,-4.0202,-4.0249,-4.0323,-3.9731,-3.9731,-3.973,-3.9968,-3.99,-4.0138,-4.0086,-4.0173,-4.0149,-4.0213,-4.0224,-4.0131,-4.0233,-4.028,-4.0643,-4.073,-4.0765,-4.0843,-4.0354,-4.0355,-4.0356,-4.0356,-4.0445,-4.0586,-4.0454,-4.0639,-4.0566,-4.072,-4.0705,-4.0634,-4.0766,-4.0603,-4.0679,-4.0509,-4.0829,-4.0893,-4.0371,-4.0369,-4.0367,-4.0365,-4.0364,-4.0796,-4.0852,-4.086,-4.0979,-4.1078,-4.1015,-4.1149,-4.1076,-4.1009,-4.1083,-4.1125,-4.1121,-4.111,-4.1107,-4.1109,-4.111,-4.1111,-4.1112,-4.1113,-4.116,-4.1162,-4.1283,-4.1332,-4.1378,-4.1429,-4.1406,-4.1449,-4.1478,-4.1415,-4.1415,-4.1313,-4.0871,-4.0764,-4.1132,-4.1129,-4.1126,-4.1124,-4.1123,-4.1674,-4.1545,-4.1734,-4.178,-4.183,-4.1933,-4.1837,-4.1931,-4.1955,-4.2024,-4.1903,-4.1588,-4.1532,-4.1493,-4.1404,-4.1916,-4.1916,-4.1916,-4.1916,-4.1973,-4.1936,-4.2111,-4.2189,-4.2257,-4.2189,-4.2404,-4.2386,-4.2348,-4.2359,-4.2273,-4.2147,-4.2111,-4.2076,-4.2025,-4.1941,-4.2578,-4.2579,-4.2579,-4.2286,-4.2252,-4.245,-4.241,-4.2443,-4.2473,-4.2672,-4.2767,-4.2697,-4.2605,-4.2367,-4.2339,-4.2134,-4.207,-4.1978,-4.19,-4.1744,0,0]},{"header":{"parameterUnit":"m.s-1","parameterCategory":1,"la1":30.2992,"la2":30.254,"lo1":-89.0895,"lo2":-89.0443,"dy":0.0025,"dx":0.0025,"nx":19,"ny":19,"refTime":"2026-04-19T09:00:00:Z","depth":0,"parameterNumber":3,"parameterNumberName":"V-component_of_WINDS"},"data":[0,0,0,-5.8163,-5.8167,-5.8336,-5.8336,-5.857,-5.8572,0,0,0,0,0,0,0,0,0,0,0,-5.8128,-5.813,-5.8163,-5.8167,-5.8336,-5.8336,-5.8569,-5.8572,0,0,0,0,0,0,0,0,0,0,0,-5.8127,-5.8129,-5.8132,-5.8168,-5.8336,-5.8337,-5.8569,-5.8434,0,0,0,0,0,0,0,0,0,0,-5.8267,-5.825,-5.8129,-5.8132,-5.8169,-5.8336,-5.8337,-5.8427,-5.8443,-5.8502,0,-5.8562,0,-5.8571,-5.8589,-5.859,0,0,0,-5.8155,-5.8237,-5.827,-5.8132,-5.8171,-5.8335,-5.8256,-5.8436,-5.8453,-5.8522,-5.8565,-5.8573,-5.8575,-5.8591,-5.8592,-5.8982,-5.8984,0,0,-5.8146,-5.8165,-5.8258,-5.8282,-5.8262,-5.8251,-5.8262,-5.8446,-5.8493,-5.8566,-5.8578,-5.8579,-5.8592,-5.8594,-5.898,-5.8983,0,0,0,-5.8127,-5.8159,-5.8187,-5.8273,-5.8302,-5.8256,-5.8269,-5.8484,-5.8492,-5.8581,-5.8582,-5.8594,-5.8597,-5.8977,-5.8981,-5.9119,0,0,0,-5.8121,-5.8148,-5.8183,-5.8197,-5.8299,-5.8396,-5.8304,-5.8479,-5.8499,-5.8581,-5.8594,-5.8599,-5.8975,-5.8979,-5.9109,-5.918,0,0,0,-5.8112,-5.8147,-5.8177,-5.8197,-5.8271,-5.8393,-5.8411,-5.8483,-5.8501,-5.859,-5.86,-5.8973,-5.8978,-5.9101,-5.9166,-5.9289,0,0,0,-5.8106,-5.8296,-5.8179,-5.8391,-5.827,-5.8478,-5.8409,-5.8562,-5.8656,-5.8595,-5.8975,-5.8981,-5.9098,-5.9158,-5.928,-5.9395,-5.9446,0,0,-5.8356,-5.8327,-5.845,-5.835,-5.8585,-5.8451,-5.8703,-5.8769,-5.8758,-5.8907,-5.8916,-5.9112,-5.9165,-5.9287,-5.9719,-5.9759,0,0,0,-5.8535,-5.8624,-5.8682,-5.8773,-5.883,-5.8882,-5.8908,-5.8931,-5.9057,-5.884,-5.9189,-5.922,-5.929,-5.9344,-5.9378,-5.9437,-5.9007,-5.9006,-5.9005,-5.8917,-5.8894,-5.9096,-5.9094,-5.9182,-5.9206,-5.9275,-5.931,-5.926,-5.9343,-5.9387,-5.9653,-5.9717,-5.9743,-5.9804,-5.9446,-5.9447,-5.9447,-5.9448,-5.9281,-5.9402,-5.9332,-5.9503,-5.9476,-5.9617,-5.9646,-5.9606,-5.9731,-5.9618,-5.9679,-5.9557,-5.9788,-5.984,-5.9458,-5.9456,-5.9455,-5.9454,-5.9453,-5.9528,-5.9583,-5.961,-5.9738,-5.9839,-5.9828,-5.9952,-5.9923,-5.9896,-5.9956,-5.9998,-5.9996,-5.999,-5.9978,-5.9979,-5.998,-5.9981,-5.9982,-5.9982,-5.9775,-5.9801,-5.9911,-5.9986,-6.004,-6.0107,-6.0131,-6.0181,-6.023,-6.0198,-6.0198,-6.0139,-5.9815,-5.9734,-5.9996,-5.9994,-5.9992,-5.9991,-5.999,-6.0152,-6.0062,-6.0233,-6.0287,-6.0371,-6.0472,-6.0433,-6.0538,-6.0575,-6.0637,-6.0565,-6.033,-6.0296,-6.0269,-6.0202,-6.057,-6.057,-6.057,-6.057,-6.0362,-6.0342,-6.0509,-6.0597,-6.068,-6.0661,-6.085,-6.087,-6.0875,-6.0896,-6.0838,-6.0746,-6.0719,-6.0702,-6.0665,-6.0602,-6.1063,-6.1064,-6.1064,-6.0592,-6.0579,-6.0748,-6.0755,-6.0818,-6.0871,-6.1048,-6.1149,-6.1135,-6.1083,-6.0911,-6.089,-6.0741,-6.0694,-6.064,-6.0583,-6.0467,0,0]}]]